METEOR-M 2

Last updated on Sun Oct 06 2024 00:02:17 GMT+0000 (Coordinated Universal Time)

1 40069U 14037A 24279.50678264 .00000835 00000+0 40352-3 0 9998 2 40069 98.4467 268.8688 0006650 46.4820 313.6910 14.21080391531298
UTC large
Height (km)
Speed (km/s)
/
Latitude / Longitude
Inclination (degrees)
Orbital Period (minutes)
Azimuth
Elevation
Range (km)
Doppler Factor

Next 0 passes for location: London (51.5072 / 0.1276)

Sorry there are no passes over London.